Location: Oberkirch
(48.5323°N, 8.0787°E)
Time: 17:05:12
(UTC+00:00)

SL-24 R/B - RUBIN 2 - Pass Details

Date: 20 February 2026
Orbit: 603 x 984 km, 64.6° (Epoch: 8 March)

Event Time Altitude Azimuth Distance (km) Brightness Sun altitude
Exits shadow 03:46:40 13° 353° (N) 1,816 6.0 -27.0°
Drops below altitude 10° 03:48:03 10° 11° (N) 1,987 6.4 -26.8°
Sets 03:51:25 0° 39° (NE) 2,869 7.8 -26.3°
